Regional Weather Roundup
Issued by NWS Albany, NY

Home | Current Version | Previous Version | Text Only | Print | Product List | Glossary On
Versions: 1 2 3 4 5 6 7 8 9 10 11 12 13 14 15 16 17 18 19 20 21 22 23 24 25 26 27 28 29 30 31 32 33 34 35 36 37 38 39 40 41 42 43 44 45 46 47 48 49 50
214
ASUS41 KALY 270110
RWRALY

NEW YORK STATE HOURLY WEATHER ROUNDUP
NATIONAL WEATHER SERVICE ALBANY NY
900 PM EDT TUE JUL 26 2016

NOTE: "FAIR" INDICATES FEW OR NO CLOUDS BELOW 12,000 FEET WITH NO
SIGNIFICANT WEATHER AND/OR NO OBSTRUCTIONS TO VISIBILITY.

NYZ032-033-038>043-046>054-057>066-NYZ062>081-082-084-270200-
EAST


CITY           SKY/WX    TMP DP  RH WIND       PRES   REMARKS
ALBANY         PTCLDY    78  61  55 W10       29.90R
GLENS FALLS    CLEAR     70  64  81 CALM      29.89R
POUGHKEEPSIE   PTCLDY    80  62  54 W3        29.90R
NEWBURGH       PTCLDY    77  64  65 NW7       29.93R
MONTGOMERY     PTCLDY    76  64  66 CALM      29.92R
WHITE PLAINS   CLEAR     78  62  57 NW6       29.91R
ISLIP          MOCLDY    81  64  56 NW3       29.89R
NEW YORK CITY  MOCLDY    86  61  42 NW13      29.88R
CENTRAL PARK   PTCLDY    85  59  41 CALM      29.93R
$$

NYZ005>009-017-018-044>046-055-056-270200-
CENTRAL


CITY           SKY/WX    TMP DP  RH WIND       PRES   REMARKS
FULTON         CLEAR     74  60  61 SW3       29.95S
SYRACUSE       CLEAR     74  60  61 NW6       29.94S
ROME           CLEAR     74  61  63 NW5       29.96R
ELMIRA         CLOUDY    75  60  59 NE5       29.96S
BINGHAMTON     CLEAR     73  58  59 N6        30.00S
MONTICELLO     PTCLDY    72  61  68 NW6       29.99S
$$

NYZ026>034-041>043-087-270200-
NORTH


CITY           SKY/WX    TMP DP  RH WIND       PRES   REMARKS
WATERTOWN      PTCLDY    73  62  68 S6        29.92R
FORT DRUM      NOT AVBL
MASSENA        CLOUDY    73  65  75 CALM      29.89R
SARANAC LAKE   PTCLDY    66  60  81 CALM      29.95R
PLATTSBURGH    CLEAR     73  63  70 W3        29.88R
$$

NYZ001>004-010>016-019>021-085-270200-
WEST


CITY           SKY/WX    TMP DP  RH WIND       PRES   REMARKS
NIAGARA FALLS  PTCLDY    76  61  59 SW12      29.97S
BUFFALO        PTCLDY    74  63  68 SW8       29.98S
DUNKIRK        CLEAR     71  63  75 SW3       30.00S
JAMESTOWN      CLOUDY    72  55  56 NW3       30.04S
WELLSVILLE     PTCLDY    71  57  61 NW6       30.06R
ROCHESTER      PTCLDY    76  60  57 CALM      29.96F
PENN YAN       CLEAR     72  60  66 CALM      29.99S
$$

             KEY
       WCI = WIND CHILL INDEX
       VSB = VISIBILITY
       HX  = HEAT INDEX
$$




USA.gov is the U.S. government's official web portal to all federal, state and local government web resources and services.